Regional Weather Roundup
Issued by NWS

Home | Current Version | Previous Version | Text Only | Print | Product List | Glossary On
Versions: 1 2 3 4 5 6 7 8 9 10 11 12 13 14 15 16 17 18 19 20 21 22 23 24 25 26 27 28 29 30 31 32 33 34 35 36 37 38 39 40 41 42 43 44 45 46 47 48 49 50
000
ASUS43 KMKX 011921
RWRWI

WISCONSIN REGIONAL WEATHER ROUNDUP
NATIONAL WEATHER SERVICE MILWAUKEE/SULLIVAN WI
200 PM CDT FRI AUG 01 2014

NOTE: "FAIR" INDICATES FEW OR NO CLOUDS BELOW 12,000 FEET WITH NO
SIGNIFICANT WEATHER AND/OR OBSTRUCTIONS TO VISIBILITY.

WIZ001-002-006>008-014>016-023>028-012000-
NORTHWEST WISCONSIN

CITY           SKY/WX    TMP DP  RH WIND       PRES   REMARKS
SUPERIOR ARPT  SUNNY     67  55  63 NE5       30.07S
ASHLAND        MOSUNNY   77  57  50 N7        30.08S
HAYWARD        SUNNY     79  52  38 CALM      30.08S
SIREN          MOSUNNY   79  55  43 CALM      30.07F HX  80
RICE LAKE      MOSUNNY   79  57  47 W5        30.09S HX  80
LADYSMITH      MOSUNNY   78  59  50 W7        30.09S
EAU CLAIRE     MOSUNNY   82  60  47 VRB5      30.05S HX  82
MENOMONIE      PTCLDY    83  58  42 NW5       30.06S HX  83
NEW RICHMOND   MOSUNNY   81  54  39 NW5       30.08S HX  81
OSCEOLA        MOSUNNY   80  56  42 NW3       30.09F HX  80
$$

WIZ003>005-009-010-017-018-012000-
NORTH CENTRAL WISCONSIN

CITY           SKY/WX    TMP DP  RH WIND       PRES   REMARKS
WOODRUFF       SUNNY     80  49  34 NW7       30.08F
RHINELANDER    SUNNY     76  51  41 VRB3      30.08F
EAGLE RIVER    SUNNY     75  46  35 N7        30.08S
LAND O LAKES   MOSUNNY   76  46  35 NW7       30.10S
PHILLIPS       MOSUNNY   75  57  52 N3        30.07F
TOMAHAWK       MOSUNNY   76  56  48 CALM      30.07F
MEDFORD        CLOUDY    72  62  71 CALM      30.07S
MERRILL        PTSUNNY   78  58  51 NW3       30.06S
$$

WIZ029-030-035-036-043>047-012000-
CENTRAL WISCONSIN

CITY           SKY/WX    TMP DP  RH WIND       PRES   REMARKS
WAUSAU         LGT RAIN  66  60  81 NW7       30.05S
MOSINEE        TSTM      79  61  53 SW7       30.06F HX  80
MARSHFIELD     MOSUNNY   80  63  55 W9        30.06F HX  81
STEVENS POINT  PTSUNNY   77  62  58 SW8       30.06S
WAUPACA        PTSUNNY   82  58  42 W8        30.04F HX  82
WAUTOMA        LGT RAIN  72  64  78 S5        30.05F
WISC RAPIDS    MOSUNNY   81  64  56 NW7       30.06F HX  82
CAMP DOUGLAS   PTSUNNY   81  63  54 W10       30.06F HX  82
$$

WIZ011>013-019>022-031-037>040-048>050-012000-
NORTHEAST WISCONSIN

CITY           SKY/WX    TMP DP  RH WIND       PRES   REMARKS
ANTIGO         MOSUNNY   78  56  47 W5        30.07S
STURGEON BAY   SUNNY     75  63  64 SE5       30.05F
GREEN BAY      MOSUNNY   81  61  50 NW6       30.04F HX  82
MANITOWOC      SUNNY     73  64  73 E8        30.05S
APPLETON       PTSUNNY   79  61  53 VRB3      30.06F HX  80
CLINTONVILLE   LGT RAIN  72  55  56 NE21      30.05R
OSHKOSH        MOSUNNY   81  62  52 VRB3      30.04F HX  82
$$

WIZ032>034-041-042-053>061-012000-
SOUTHWEST WISCONSIN

CITY           SKY/WX    TMP DP  RH WIND       PRES   REMARKS
LA CROSSE      SUNNY     84  59  42 NW6       30.06F HX  84
SPARTA         MOSUNNY   82  56  42 W6        30.07F HX  81
VIROQUA        FAIR      79  59  49 W5        30.09F HX  80
BOSCOBEL       SUNNY     84  58  40 W6        30.07F HX  83
PRAIRIE DU CHI MOSUNNY   82  52  34 CALM      30.06F HX  81
PLATTEVILLE    PTSUNNY   80  55  41 NW3       30.09F HX  80
$$

WIZ056-057-062-063-064-067-068-012000-
SOUTH CENTRAL WISCONSIN

CITY           SKY/WX    TMP DP  RH WIND       PRES   REMARKS
BARABOO/DELLS  MOSUNNY   83  55  37 W3        30.06F HX  82
LONE ROCK      MOSUNNY   86  59  39 VRB5      30.06F HX  85
WATERTOWN      SUNNY     81  59  47 SW3       30.06S HX  81
MADISON        MOSUNNY   83  57  41 SW8       30.06F HX  82
MIDDLETON      FAIR      84  54  35 W8        30.07F HX  83
MONROE         PTSUNNY   81  54  39 CALM      30.08F HX  80
JANESVILLE     MOSUNNY   84  50  30 NW6       30.06F HX  82
$$

WIZ051-052-058>065-066-070>072-012000-
SOUTHEAST WISCONSIN

CITY           SKY/WX    TMP DP  RH WIND       PRES   REMARKS
MILWAUKEE      PTSUNNY   83  56  39 W8        30.05F HX  82
WAUKESHA       MOSUNNY   79  55  44 W7        30.08F
MILWAUKEE/TIMM NOT AVBL
RACINE         MOSUNNY   82  56  40 CALM      30.07F HX  82
BURLINGTON     MOSUNNY   80  55  41 W3        30.07F HX  80
KENOSHA        MOSUNNY   82  58  43 W7        30.06F HX  82
FOND DU LAC    MOSUNNY   81  61  50 VRB5      30.05F HX  82
SHEBOYGAN      MOSUNNY   82  61  48 VRB5      30.05F HX  83
WEST BEND      MOSUNNY   81  54  39 SW8       30.05F HX  80
JUNEAU         PTSUNNY   80  52  37 SW9       30.07S HX  80
$$

LSZ147-162-012000-
LAKE SUPERIOR

STATION/POSITION TIME  TEMP    WIND        PRES    WAVE
                       AIR SEA DIR/SP/G            HT/PER
                 (UTC) (F)     (DEG/KT/KT) (MB)    (FT/S)
W MID LAKE BUOY  1850   50 45  100/  6/  8 1019.0R   0
PORT WING        1800   63      20/  4/  6 1018.6R
SAXON HARBOR     1840           CALM  /  4 1019.0R
$$

LMZ867-665-643>646-012000-
LAKE MICHIGAN

STATION/POSITION TIME  TEMP    WIND        PRES    WAVE
                       AIR SEA DIR/SP/G            HT/PER
                 (UTC) (F)     (DEG/KT/KT) (MB)    (FT/S)
N MID LAKE BUOY  1850   61 60   70/  4/  6 1017.7S   1
NORTHPORT PIER   1800   63     130/  8/  9 1017.6S
SISTER BAY       1725   77     190/  8/ 10   N/A
ALGOMA LAKESHORE 1806             CALM       N/A
KEWAUNEE LAKESHO 1900   63     150/  5/  5 1017.0F
SHEBOYGAN LAKESH 1900   70     170/ 14/ 15 1017.3F
PORT WASHINGTON  1840   72     180/  4/  6 1018.3F
ATWATER BUOY     1900   68     130/ 10     1018.5F
MILWAUKEE LAKESH 1900   68     130/ 11/ 12   N/A
S MID LAKE BUOY  1850   69 68  220/  2/  2 1018.5F   0
KENOSHA   LAKESH 1900   76     130/  9/ 10 1017.3F
$$

TC  - TEMPERATURE IN CELSIUS
VSB - VISIBILITY IN STATUTE MILES
WCI - WIND CHILL INDEX
HX  - HEAT INDEX




USA.gov is the U.S. government's official web portal to all federal, state and local government web resources and services.